Lapse_Rate
2.8 7.0 8.5 9.2 6.6 6.5 6.5 6.5 6.5 6.5 6.5 7.5 7.7 7.1 6.6 7.3 6.6 6.5 8.5 7.6 7.3 7.9 5.8 3.3 2.2 2.5 2.8 2.9 2.8 2.6 2.6 2.7 2.6 2.5 2.6 2.7 2.6 2.6 2.7 2.8 3.1 3.3 3.9 3.9 4.1 4.2 4.1 3.8 3.6
8.0 8.5 9.4 8.1 6.5 6.5 6.5 6.5 6.5 6.5 7.1 7.8 7.7 7.5 7.0 6.5 8.3 8.4 8.8 6.7 6.8 7.5 5.9 5.5 1.9 2.3 2.7 2.9 2.9 2.8 2.8 2.7 2.6 2.6 2.7 2.8 2.7 2.6 2.7 2.7 3.0 3.2 3.8 4.0 4.1 4.2 4.2 3.8 3.6
7.7 8.4 8.0 6.5 6.5 6.5 6.5 6.5 6.5 7.0 7.6 7.4 7.2 8.0 7.5 7.2 8.4 8.8 7.8 6.6 6.5 6.7 6.2 5.5 1.5 2.0 2.3 2.7 2.8 2.9 2.9 2.7 2.7 2.7 2.9 2.9 2.8 2.7 2.7 2.7 2.9 3.3 3.7 3.9 3.9 3.7 3.6 3.5 3.7
9.4 9.1 8.3 6.5 6.5 6.5 6.5 6.5 6.8 6.8 7.5 7.8 7.6 6.6 8.2 8.7 8.7 9.2 6.7 6.6 6.5 7.5 7.1 0.8 1.0 1.8 2.2 2.7 2.8 3.0 2.9 2.8 2.8 3.0 3.1 3.1 3.0 3.0 2.8 2.7 2.9 3.2 3.4 3.7 3.5 3.3 3.1 3.3 3.5
9.4 8.3 6.5 6.5 6.5 6.5 6.5 7.0 7.2 6.5 6.9 7.2 7.6 6.7 7.3 8.6 6.7 6.5 6.2 6.2 6.6 6.8 6.8 1.7 0.7 1.7 2.3 2.7 2.9 3.0 2.8 2.9 2.9 3.0 3.1 3.2 3.2 3.1 2.8 2.9 3.0 3.0 3.0 3.1 2.9 2.6 2.6 3.0 3.5
7.8 7.8 6.5 6.5 6.5 6.5 6.6 7.4 7.2 6.9 7.2 7.4 7.2 7.2 7.5 8.0 7.7 6.8 6.2 6.0 6.0 5.9 5.7 4.1 1.3 1.9 2.5 2.7 2.8 2.8 2.7 2.9 3.0 3.2 3.2 3.4 3.3 3.2 3.3 3.1 3.0 2.7 2.4 2.4 2.4 2.3 2.3 2.7 3.2
7.0 6.5 6.5 6.5 6.5 6.5 6.5 7.6 6.8 6.8 7.0 7.0 8.0 6.5 7.9 8.6 9.1 6.6 6.4 5.9 5.5 5.5 5.8 5.3 3.7 3.1 2.5 3.1 3.2 3.1 3.0 3.2 3.3 3.4 3.5 3.6 3.6 3.6 3.7 3.3 3.3 2.6 2.2 2.1 2.2 2.3 2.3 2.3 2.5
8.1 6.6 6.5 6.5 6.5 6.5 6.8 7.3 7.7 7.3 6.8 8.3 8.4 6.6 6.9 8.6 7.8 6.3 5.7 6.1 5.3 4.9 5.5 5.6 4.9 5.1 5.5 5.2 3.6 3.7 3.7 3.6 3.6 3.8 3.9 3.8 3.9 3.8 3.8 3.6 3.5 3.4 2.7 2.4 2.4 2.6 2.6 2.6 2.4
8.6 6.5 6.5 6.5 6.5 6.5 7.2 6.6 7.8 8.2 7.6 7.9 8.1 8.0 8.0 7.4 6.4 5.4 5.4 5.9 5.6 5.1 5.1 4.7 5.0 5.1 5.7 9.0 5.5 3.6 4.0 4.1 3.9 4.3 4.1 4.3 7.0 5.8 5.0 6.1 4.0 3.9 3.4 2.6 2.2 2.4 2.5 2.5 2.8
7.1 6.5 6.5 6.5 6.6 6.5 7.0 7.1 7.2 7.2 7.2 7.3 7.7 8.4 7.0 7.2 7.6 8.2 8.6 8.7 8.6 6.0 4.9 4.4 4.7 5.2 4.4 5.5 6.0 6.4 6.6 6.7 6.6 6.7 6.0 7.1 9.1 8.7 8.6 7.2 4.2 3.9 3.8 3.2 2.5 2.2 2.3 2.9 8.2
7.1 6.5 6.5 6.8 7.4 7.4 7.1 7.0 7.7 7.0 6.5 7.3 7.2 7.8 8.4 8.6 8.7 8.6 8.9 9.1 9.1 9.2 6.6 5.0 4.1 4.6 4.8 5.5 5.2 6.4 5.9 7.5 7.1 8.4 8.4 8.8 8.2 8.3 8.7 7.2 6.0 6.3 4.1 6.9 5.0 4.2 5.9 7.2 7.7
6.5 7.1 7.2 7.2 7.5 7.4 6.7 7.6 7.0 7.3 7.3 8.2 8.3 8.5 8.6 8.5 8.6 8.8 8.7 9.1 9.2 9.3 9.0 5.6 4.4 3.5 4.0 4.8 5.0 5.3 5.6 5.2 5.6 6.4 6.0 6.4 6.7 7.5 7.6 7.8 7.4 7.2 7.4 8.8 8.5 9.5 8.3 6.8 6.3
6.5 6.6 7.3 7.6 7.6 7.6 7.6 7.1 6.9 7.3 8.1 8.6 8.6 8.5 8.4 8.6 8.7 9.0 9.2 9.3 9.3 9.2 9.2 6.0 4.7 4.0 3.5 4.5 4.6 4.9 5.3 5.3 5.7 6.7 7.0 6.7 6.7 6.7 7.4 7.7 8.0 7.9 7.9 8.6 8.8 9.0 9.3 9.2 7.9
7.1 7.1 7.2 7.4 7.4 7.5 6.8 6.9 7.2 7.6 8.2 8.1 8.2 8.2 8.4 8.5 8.6 8.9 9.0 9.1 9.1 9.2 9.3 6.7 4.7 4.3 3.7 4.6 4.2 4.4 4.6 5.0 5.6 5.8 5.6 5.9 6.4 5.7 5.6 7.3 7.6 8.5 8.5 9.2 9.1 9.3 9.4 9.2 9.3
7.4 6.5 6.5 6.8 7.2 6.6 7.5 6.5 6.5 7.9 8.2 7.8 8.0 8.2 8.3 8.6 8.8 8.7 9.0 9.0 9.2 9.4 9.5 7.5 4.6 4.7 3.9 4.9 4.1 4.7 4.6 4.3 4.9 5.6 5.8 5.9 5.6 6.0 7.7 7.3 8.5 8.7 8.3 7.9 7.8 8.3 8.6 9.0 9.4
6.5 6.5 6.5 6.5 6.6 7.0 6.9 6.5 6.5 7.9 7.7 7.6 7.7 8.0 8.1 8.3 8.3 8.7 8.7 8.7 9.2 9.4 9.3 9.3 4.5 3.6 3.8 5.3 4.1 4.9 4.3 4.2 5.3 5.7 6.0 6.1 6.5 7.1 7.0 6.9 7.6 7.4 6.9 6.9 6.7 6.5 6.8 7.1 6.0
6.5 6.5 6.5 6.5 6.7 6.5 6.5 6.5 6.5 7.8 7.6 7.4 7.7 7.8 8.0 8.1 8.1 7.8 6.3 6.7 8.6 8.5 9.1 9.1 4.5 2.7 3.2 4.2 4.3 4.5 4.3 4.9 5.5 5.8 6.0 5.5 5.5 5.7 5.7 5.6 6.0 5.5 5.2 4.3 4.1 4.2 4.0 4.4 4.2
6.5 6.5 6.5 6.5 6.5 6.5 6.5 6.5 6.5 7.3 7.4 7.3 7.6 7.7 7.9 8.0 8.1 7.6 5.5 7.6 6.9 7.0 8.1 8.5 2.5 2.0 2.7 3.0 3.6 3.9 4.4 5.0 4.6 4.6 5.0 5.3 5.7 6.1 5.2 6.1 6.3 5.5 5.2 6.0 5.2 4.5 5.1 5.0 5.4
6.5 6.5 6.5 6.5 6.5 6.5 6.5 6.5 6.5 7.0 7.2 7.2 7.6 7.7 7.8 7.9 8.2 5.0 5.6 5.6 5.8 5.8 6.2 6.0 1.1 1.2 2.4 3.2 4.0 5.1 5.2 5.7 6.2 5.5 6.7 6.0 4.7 5.9 6.9 7.7 7.8 7.8 9.0 8.3 7.4 7.7 7.0 7.6 6.0
6.5 6.5 6.5 6.5 6.5 6.5 6.5 6.5 6.5 6.5 6.8 7.3 7.5 7.6 7.7 7.9 7.9 5.4 6.0 6.9 5.9 5.4 5.1 3.3 2.2 2.7 4.8 3.9 4.4 4.6 5.8 7.0 8.9 8.1 7.1 6.7 6.7 6.3 6.7 6.6 7.1 6.8 7.4 7.5 7.7 8.4 9.2 9.4 9.6
6.5 6.5 6.5 6.5 6.5 6.5 6.5 6.5 6.5 6.5 7.1 7.5 7.7 7.9 8.0 7.8 7.7 8.0 8.1 7.7 7.5 7.5 4.6 4.6 3.4 2.3 3.7 4.1 3.0 4.1 4.1 6.4 6.1 7.5 7.0 5.9 5.6 5.6 5.7 6.0 6.3 6.4 6.9 8.3 8.2 9.0 9.2 9.0 9.4
6.5 6.5 6.5 6.5 6.5 6.5 6.5 6.5 6.5 6.5 6.5 6.5 7.1 7.5 7.8 7.9 8.2 8.4 8.4 8.3 8.2 8.2 8.3 7.4 4.4 4.2 4.1 4.2 4.8 6.0 7.1 6.7 8.6 7.7 6.8 6.8 5.5 5.4 5.4 5.3 5.9 6.1 6.7 7.2 8.1 9.5 9.4 9.3 8.9
6.5 6.5 6.5 6.5 6.5 6.5 6.5 6.5 6.5 6.5 6.5 6.5 6.5 7.3 7.7 8.0 8.3 8.3 8.4 8.6 8.7 8.0 7.5 7.5 6.5 6.1 6.2 6.9 6.1 6.5 6.2 7.5 7.2 6.4 6.0 5.8 5.9 5.6 6.0 6.2 6.5 6.5 6.9 7.2 6.7 6.8 7.3 8.9 9.1
6.5 6.5 6.5 6.5 6.5 6.5 6.5 6.5 6.5 6.5 6.5 6.5 6.6 7.2 7.5 8.0 8.3 8.5 8.7 8.9 8.9 9.2 8.9 8.7 9.0 7.8 7.2 7.0 7.1 7.0 6.4 6.6 6.9 6.4 6.4 6.9 6.6 6.6 6.5 6.3 6.3 6.0 6.0 6.2 6.4 6.4 6.5 7.2 8.7
6.5 6.5 6.5 6.5 6.5 6.5 6.5 6.5 6.5 6.5 6.5 6.5 6.5 6.9 7.5 7.9 8.2 8.4 8.5 8.7 8.8 8.9 8.9 8.8 9.0 7.7 6.5 6.2 6.2 6.0 6.0 6.1 6.4 6.5 6.7 6.2 6.7 7.0 7.2 6.7 6.2 6.5 6.5 6.4 6.6 7.3 7.3 7.4 8.8
6.5 6.5 6.5 6.5 6.5 6.5 6.5 6.5 6.5 6.5 6.6 7.0 7.2 7.3 7.5 7.7 7.9 8.2 8.4 8.7 8.8 8.8 8.8 8.8 8.7 7.0 6.5 6.5 6.3 6.3 6.3 7.0 6.6 6.1 6.1 6.4 7.2 8.4 7.7 6.3 6.0 6.1 5.8 5.4 5.8 6.5 7.5 9.1 9.2
6.5 6.5 6.5 6.5 6.5 6.5 6.5 6.5 6.5 6.5 6.5 6.5 6.9 7.2 7.3 7.7 8.0 8.2 8.5 8.6 8.9 8.9 8.8 8.8 8.8 7.2 7.0 6.7 6.2 6.1 5.9 5.8 6.0 5.8 6.1 7.4 7.2 8.3 7.3 6.1 5.6 5.1 4.9 5.2 5.9 7.2 8.3 9.1 9.2
6.5 6.5 6.5 6.5 6.5 6.5 6.5 6.5 6.5 6.5 6.5 6.5 6.5 6.8 7.4 7.8 8.1 8.2 8.4 8.6 8.9 8.9 8.9 8.7 8.8 7.7 6.8 6.6 6.6 6.7 6.4 5.9 6.1 5.8 6.1 6.4 6.3 6.1 5.5 5.1 4.9 4.6 4.2 4.1 6.2 8.0 8.3 8.5 9.1
6.5 6.5 6.5 6.5 6.5 6.5 6.5 6.5 6.5 6.5 6.5 6.5 6.5 7.1 7.4 7.7 8.0 8.2 8.3 8.7 9.0 9.0 9.0 8.6 9.0 8.7 6.9 6.7 6.4 6.2 6.3 5.6 5.5 5.7 6.0 5.9 5.1 4.8 4.4 3.7 3.3 3.6 4.4 6.4 7.4 7.9 8.1 8.0 8.8
6.5 6.5 6.5 6.5 6.5 6.5 6.5 6.5 6.5 6.5 6.5 6.5 6.5 7.2 7.7 7.9 8.1 8.3 8.4 8.7 8.8 8.8 8.9 8.7 8.8 7.1 6.8 7.0 6.4 5.8 5.1 5.1 5.3 5.5 5.3 4.8 4.6 4.8 5.4 5.4 4.6 4.6 5.2 4.7 4.7 6.4 7.6 7.6 7.3
Wind_Speed
8 7 5 6 6 6 6 6 1 4 4 3 1 4 10 9 7 5 6 8 7 15 20 21 17 15 16 16 17 20 21 21 21 21 19 18 18 16 16 15 14 13 11 11 11 11 11 12 12
4 5 5 3 7 9 8 3 4 2 5 6 5 3 4 9 6 10 10 9 8 14 19 21 17 16 15 16 17 19 20 21 21 21 20 18 18 17 15 14 13 13 11 9 9 10 9 10 9
6 5 5 4 5 9 7 3 1 4 5 3 4 4 2 5 4 6 6 12 9 14 18 19 21 20 19 19 17 17 19 20 21 21 20 19 18 17 15 14 13 12 11 9 9 9 8 7 7
4 5 4 7 7 4 1 2 3 8 5 5 3 8 5 3 5 3 7 11 10 13 17 21 20 20 18 17 17 17 18 19 19 19 20 19 18 17 14 13 14 13 11 9 8 8 7 7 7
4 4 7 7 6 3 2 4 3 7 6 7 6 7 6 5 3 5 8 8 9 13 15 19 20 20 18 18 17 17 19 19 19 19 19 19 18 17 16 14 13 13 12 9 8 7 8 6 5
6 4 8 10 9 6 3 3 2 6 8 9 7 8 6 6 7 7 8 8 9 12 13 17 19 17 18 19 20 20 21 20 19 19 19 18 18 17 17 15 14 14 13 10 7 8 7 6 5
11 7 11 7 5 9 7 3 4 3 8 6 5 7 5 8 7 8 8 8 9 11 12 15 18 18 16 18 19 20 21 20 19 20 19 17 19 18 17 15 14 14 14 11 7 6 6 5 5
6 6 10 9 9 7 8 6 4 3 4 2 2 5 6 6 11 9 8 8 9 9 10 11 13 16 17 17 17 19 20 21 20 19 18 19 18 17 16 15 12 12 13 10 7 5 3 3 3
5 7 11 13 10 5 5 9 4 3 6 4 4 3 4 2 10 9 8 9 8 8 10 10 10 12 12 14 18 17 17 18 18 16 16 17 15 16 15 12 15 10 10 12 9 6 4 3 4
12 11 15 7 9 7 6 7 4 6 7 7 8 5 3 5 9 11 11 11 12 12 12 11 11 11 13 12 13 18 18 18 17 17 17 16 13 14 13 13 12 11 9 9 10 8 7 8 8
11 17 14 10 12 9 12 9 6 10 12 10 9 5 7 10 11 11 12 11 13 13 11 13 12 12 11 9 11 11 10 11 14 16 16 16 11 11 12 10 12 11 10 10 10 9 9 7 7
13 16 14 11 10 11 14 13 12 13 13 7 9 11 12 13 13 12 13 13 10 14 15 14 14 12 11 10 9 10 9 11 10 14 13 7 4 7 8 9 11 10 10 9 8 7 7 8 9
18 18 11 14 14 15 14 17 18 21 14 15 13 12 14 15 16 14 14 12 8 13 14 15 15 13 11 10 8 8 7 9 11 10 11 10 8 5 8 9 9 10 10 10 8 9 9 9 10
4 17 18 14 14 15 15 18 11 22 10 10 10 12 13 16 17 17 16 15 12 12 14 14 15 14 13 10 11 7 9 9 10 10 11 11 8 7 6 6 8 9 11 9 9 7 6 7 9
14 18 18 15 15 16 15 21 23 25 18 15 12 11 11 14 15 16 17 15 13 12 13 15 15 15 14 13 10 8 10 10 7 8 10 10 11 11 11 6 7 7 8 10 10 10 10 9 9
12 18 19 18 20 19 11 19 18 17 14 15 10 9 7 10 10 11 10 12 12 12 14 14 12 14 14 12 10 8 10 10 9 10 11 13 12 12 7 5 7 6 5 7 5 7 8 9 6
16 17 19 17 15 13 19 18 20 18 16 16 11 7 6 8 9 8 7 8 10 12 13 15 14 15 14 12 9 8 10 7 8 8 8 9 8 8 7 5 5 5 3 1 3 4 3 5 7
20 17 18 18 6 14 19 21 16 10 14 15 13 8 8 10 10 6 7 7 8 9 12 14 12 14 14 10 8 6 6 6 7 5 6 6 7 8 7 6 5 3 3 4 3 5 6 7 8
22 15 21 18 13 12 19 21 18 18 20 19 19 15 11 12 10 8 8 7 7 8 11 12 14 14 10 9 8 6 5 6 6 5 7 7 4 4 4 3 2 3 4 5 6 7 8 7 7
23 23 24 20 16 13 20 26 24 22 24 22 21 18 16 14 13 12 10 9 9 10 11 13 13 14 9 8 6 4 6 5 7 6 8 7 5 4 3 3 3 4 6 8 9 10 9 10 8
27 28 24 22 14 14 17 29 29 26 29 24 23 22 21 18 18 16 13 12 10 11 12 13 13 13 10 10 8 7 7 7 5 6 5 5 4 2 3 4 5 7 7 8 10 11 13 12 12
28 26 24 21 17 18 12 22 27 19 20 19 19 22 22 18 19 16 14 12 12 12 12 13 13 13 12 9 10 10 8 7 5 5 4 3 2 3 5 6 7 8 8 10 11 11 12 13 14
29 24 22 20 20 20 26 15 31 20 23 21 16 18 18 19 19 18 16 14 13 14 15 15 17 15 12 13 10 6 8 7 6 4 2 1 3 5 7 8 9 9 8 11 12 13 13 12 13
18 18 13 18 15 18 32 19 32 23 25 18 18 20 20 19 19 18 16 16 16 16 15 15 17 16 15 13 12 11 10 7 4 3 1 3 4 5 7 9 9 10 11 12 12 13 15 14 15
24 17 13 13 14 21 13 17 30 7 14 14 22 19 17 18 20 20 21 19 18 19 17 15 16 15 14 13 11 9 8 6 4 2 2 4 5 6 8 10 10 10 12 13 14 14 15 15 15
32 28 15 21 20 23 20 16 24 16 18 19 21 17 16 18 20 22 22 20 20 20 19 17 17 15 13 12 10 8 7 4 2 2 3 4 6 7 10 10 11 13 13 13 13 12 13 16 14
31 24 34 24 18 11 16 24 33 28 20 10 15 15 18 21 22 23 23 21 20 20 19 18 17 16 13 11 9 7 5 3 1 3 4 5 8 8 10 12 13 13 14 15 15 12 15 14 15
30 24 20 15 10 22 22 30 25 19 21 19 20 20 19 19 21 21 22 21 20 20 18 17 16 15 13 11 8 6 4 3 2 4 6 8 9 10 11 12 13 14 14 15 15 13 15 15 13
23 26 20 18 16 14 20 20 34 26 22 18 22 22 20 20 21 22 21 22 21 19 18 16 16 15 12 9 8 6 4 1 3 5 7 8 9 10 10 11 12 13 14 15 15 17 19 18 18
32 30 29 13 15 20 22 22 18 6 13 19 23 23 19 18 19 21 21 23 21 20 18 17 13 13 10 8 6 5 2 2 4 6 7 8 9 9 10 11 12 14 14 15 15 15 14 16 16
Wind_Direction
205 248 268 241 241 236 171 127 19 140 151 39 355 336 45 19 8 43 136 132 146 159 160 169 158 154 149 147 145 141 142 142 141 140 142 146 144 141 139 135 136 135 140 136 131 125 124 125 127
274 267 235 272 253 211 144 120 151 87 95 93 102 138 80 75 63 109 142 152 159 160 163 170 159 158 154 152 149 147 145 143 143 144 147 149 146 146 143 140 137 134 137 132 126 120 120 124 130
263 275 269 265 252 239 137 139 61 119 180 194 138 37 83 88 97 111 84 140 150 162 165 164 162 165 167 164 157 151 147 145 147 150 151 150 150 151 149 139 131 136 138 135 127 121 118 125 128
261 204 208 248 204 103 261 57 100 143 127 191 180 117 125 54 130 59 122 149 152 162 170 143 165 171 170 164 160 155 150 149 150 150 152 152 155 154 146 142 136 140 140 135 126 120 118 135 140
228 247 244 238 198 161 165 89 119 172 124 151 186 129 122 144 131 128 138 152 156 163 169 162 172 172 169 166 164 162 158 159 157 158 157 159 157 155 151 150 142 143 141 142 136 133 132 141 161
231 278 236 223 184 184 192 126 150 139 154 135 160 143 136 141 179 143 146 147 154 159 165 167 175 172 170 169 168 166 165 165 163 162 162 162 156 158 157 156 152 143 140 150 147 135 139 154 179
256 245 257 272 227 199 190 177 146 157 161 137 119 165 127 184 168 154 152 146 155 160 168 165 176 180 175 176 172 169 167 167 166 168 164 160 162 163 165 165 164 145 146 153 154 146 146 163 186
250 259 252 237 224 208 172 186 179 243 133 102 271 176 168 169 156 155 158 159 158 165 170 169 176 182 184 184 182 176 174 173 173 172 167 167 170 171 175 171 171 159 144 146 147 144 138 177 199
233 241 244 235 234 215 165 210 186 306 257 208 199 254 71 128 150 165 171 178 171 176 178 173 173 178 192 189 179 177 181 178 174 173 172 172 186 183 176 195 159 171 156 150 151 159 168 188 206
215 231 243 252 249 254 197 235 192 238 197 215 218 199 197 192 194 204 206 200 195 186 182 179 178 173 180 183 182 188 185 187 191 188 181 197 202 194 191 167 170 180 178 159 161 174 183 212 223
215 241 238 240 247 266 261 238 229 248 242 239 225 224 225 231 222 226 233 234 199 194 185 186 176 176 182 182 182 180 178 193 198 197 193 204 191 194 201 163 187 195 195 208 191 190 223 227 244
246 235 252 240 244 245 252 275 253 256 264 254 262 276 276 237 240 234 236 250 197 192 190 184 178 176 179 175 181 179 183 185 196 194 190 184 212 187 197 196 187 194 202 232 232 239 247 230 235
236 249 230 245 246 248 262 259 271 268 268 264 273 265 256 249 247 254 250 255 214 202 194 185 178 177 173 178 177 188 190 191 194 198 195 199 183 218 215 211 207 213 211 226 238 249 247 240 240
253 251 251 236 235 236 244 252 252 262 249 262 262 261 249 248 248 256 244 247 230 213 198 186 183 179 171 182 176 178 183 188 189 186 184 190 201 193 218 245 233 226 231 241 245 244 256 257 264
262 257 250 230 236 238 245 253 244 255 264 268 266 258 258 252 251 253 255 244 230 213 206 190 186 180 174 180 176 174 177 178 186 180 185 189 194 204 223 229 245 240 238 245 250 263 257 260 258
241 240 252 243 232 226 225 255 240 244 241 234 249 267 259 246 252 255 250 241 237 215 202 185 183 179 176 180 174 174 170 174 182 191 191 201 207 219 233 245 250 251 259 270 253 246 249 253 261
226 250 233 252 227 233 220 249 246 244 222 235 223 239 254 248 244 238 232 229 211 205 191 184 176 178 172 172 170 163 162 173 172 185 191 196 208 215 223 236 261 288 280 289 261 256 241 248 249
232 230 250 246 200 231 240 244 254 205 216 221 231 227 231 235 235 224 237 216 191 186 188 179 171 172 165 156 149 151 156 162 166 177 195 196 196 202 214 233 250 270 251 250 262 263 261 249 266
257 253 252 252 250 283 259 260 254 244 235 231 243 241 231 228 220 222 231 212 182 171 171 170 170 166 159 158 153 151 153 158 148 167 141 111 86 152 177 212 253 275 275 298 293 282 277 274 275
243 247 249 256 263 283 274 271 267 255 250 246 243 240 234 224 206 211 211 207 191 170 170 167 167 164 165 147 131 123 133 127 117 112 106 97 90 64 42 4 331 321 306 293 293 292 291 282 268
231 235 244 253 249 249 281 280 261 252 250 243 246 244 246 224 209 199 199 201 188 178 169 171 152 139 126 128 109 109 99 124 129 139 124 93 78 35 348 325 314 304 296 290 291 286 285 284 279
239 232 248 257 254 254 236 273 274 267 261 246 227 238 234 211 210 196 195 188 187 170 160 150 140 121 124 131 136 143 149 138 138 132 117 117 38 340 326 313 308 301 295 287 281 277 279 280 277
242 246 246 238 244 257 251 262 266 268 260 243 231 232 221 212 202 193 189 177 167 154 153 143 136 131 129 134 130 130 114 134 143 126 105 13 315 315 307 299 300 293 289 288 287 285 280 276 273
237 235 238 237 237 243 244 242 270 257 258 241 244 239 221 209 196 188 178 165 158 151 147 145 143 137 135 133 136 133 134 129 127 111 319 293 298 295 293 295 294 294 292 288 288 286 280 276 273
214 211 219 219 216 238 237 224 247 236 295 253 235 234 223 204 192 180 176 172 163 157 152 150 146 139 134 129 125 119 119 121 137 176 277 301 291 289 291 296 292 290 291 290 286 283 278 276 273
213 213 219 223 231 242 226 243 246 235 258 263 250 238 214 197 191 186 178 174 168 163 161 157 151 142 140 134 130 129 133 135 155 204 284 284 288 289 297 293 292 291 293 291 290 290 287 284 278
220 213 224 248 275 280 259 236 250 257 250 243 234 228 198 198 192 185 179 177 173 169 166 164 154 149 148 140 138 140 142 157 220 268 283 288 293 294 296 297 297 297 293 290 292 286 285 283 283
227 214 220 226 218 236 244 254 263 250 254 217 227 219 210 196 190 184 181 178 176 173 164 163 158 154 147 145 148 149 159 180 269 299 299 298 296 295 301 302 304 304 299 292 285 282 276 277 277
210 222 213 219 219 235 249 250 253 256 252 218 222 218 206 193 187 184 181 179 176 169 167 164 160 152 151 151 147 157 160 209 300 299 299 300 302 301 304 302 293 290 295 290 290 291 291 287 286
221 212 211 214 208 222 230 253 244 300 263 231 227 219 201 193 187 183 178 175 174 170 167 162 158 155 155 150 155 153 147 293 297 301 304 304 292 297 298 297 294 293 297 302 296 289 287 287 284